TimePST,TemperatureF,Dew PointF,Humidity,Sea Level PressureIn,VisibilityMPH,Wind Direction,Wind SpeedMPH,Gust SpeedMPH,PrecipitationIn,Events,Conditions,WindDirDegrees,DateUTC
12:54 AM,-9999,-9999,N/A,30.04,-9999.0,NE,9.2,-,N/A,,Clear,40,2013-02-24 08:54:00
1:54 AM,-9999,-9999,N/A,30.05,-9999.0,North,6.9,-,N/A,,Clear,360,2013-02-24 09:54:00
2:54 AM,-9999,-9999,N/A,30.05,-9999.0,North,6.9,-,N/A,,Clear,10,2013-02-24 10:54:00
3:54 AM,-9999,-9999,N/A,30.05,-9999.0,NE,20.7,36.8,N/A,,Clear,50,2013-02-24 11:54:00
4:54 AM,-9999,-9999,N/A,30.06,-9999.0,NE,17.3,27.6,N/A,,Clear,50,2013-02-24 12:54:00
5:54 AM,-9999,-9999,N/A,30.08,-9999.0,NE,15.0,24.2,N/A,,Clear,50,2013-02-24 13:54:00
6:54 AM,53.4,13.6,21,30.11,7.0,NE,18.4,38.0,N/A,,Partly Cloudy,50,2013-02-24 14:54:00
7:54 AM,56.5,14.7,19,30.14,7.0,NE,20.7,35.7,N/A,,Partly Cloudy,50,2013-02-24 15:54:00
8:54 AM,57.4,30.2,36,30.16,7.0,NE,23.0,35.7,N/A,,Clear,50,2013-02-24 16:54:00
9:54 AM,60.4,15.1,17,30.15,7.0,NE,25.3,40.3,N/A,,Partly Cloudy,50,2013-02-24 17:54:00
10:54 AM,63.3,14.2,15,30.15,7.0,NE,21.9,35.7,N/A,,Partly Cloudy,50,2013-02-24 18:54:00
11:54 AM,65.1,14.0,14,30.13,7.0,NE,20.7,38.0,N/A,,Partly Cloudy,50,2013-02-24 19:54:00
12:54 PM,65.1,14.2,14,30.10,7.0,NE,20.7,39.1,N/A,,Partly Cloudy,50,2013-02-24 20:54:00
1:54 PM,65.7,13.6,13,30.08,7.0,ENE,27.6,39.1,N/A,,Partly Cloudy,60,2013-02-24 21:54:00
2:54 PM,68.7,15.1,13,30.10,7.0,ENE,19.6,28.8,N/A,,Clear,60,2013-02-24 22:54:00
3:54 PM,68.7,13.1,12,30.09,7.0,NE,11.5,21.9,N/A,,Clear,40,2013-02-24 23:54:00
4:54 PM,61.9,31.5,32,30.11,7.0,WNW,12.7,19.6,N/A,,Clear,300,2013-02-25 00:54:00
5:54 PM,58.1,34.3,41,30.12,7.0,WNW,11.5,-,N/A,,Clear,300,2013-02-25 01:54:00
6:54 PM,56.3,39.6,53,30.15,7.0,WNW,10.4,-,N/A,,Clear,290,2013-02-25 02:54:00
7:54 PM,58.3,41.5,54,30.18,7.0,Variable,3.5,-,N/A,,Clear,0,2013-02-25 03:54:00
8:54 PM,55.0,37.2,51,30.20,7.0,Calm,Calm,-,N/A,,Clear,0,2013-02-25 04:54:00
9:54 PM,-9999,-9999,N/A,30.20,-9999.0,North,9.2,-,N/A,,Clear,350,2013-02-25 05:54:00
10:54 PM,-9999,-9999,N/A,30.21,-9999.0,Calm,Calm,-,N/A,,Clear,0,2013-02-25 06:54:00
11:54 PM,-9999,-9999,N/A,30.22,-9999.0,NW,5.8,-,N/A,,Clear,320,2013-02-25 07:54:00